This demonstration page uses our WeatherBlox Daily Observations layout. Learn more.

38.89511, -77.03637

Hourly Observations for February 12, 2015

Temp ( °F °C ) Dew Point ( °F °C ) Humidity (%) Winds ( mph kmh ) Pressure ( in mb ) Visibility ( mi km ) Precip ( " mm )
12:52 am 00:52 Mostly Cloudy 34 1 25 -4 70 70 SSW 8 13 29.91 1013 10 16.09344 0 0
1:52 am 01:52 Mostly Cloudy 36 2 27 -3 70 70 S 9 15 29.91 1013 10 16.09344 0 0
2:52 am 02:52 Cloudy 36 2 27 -3 70 70 SSW 7 11 29.88 1012 10 16.09344 0 0
3:52 am 03:52 Cloudy 36 2 27 -3 70 70 SSW 6 9 29.85 1011 10 16.09344 0 0
4:52 am 04:52 Cloudy 36 2 27 -3 70 70 SW 3 6 29.85 1011 10 16.09344 0 0
5:52 am 05:52 Cloudy 36 2 27 -3 70 70 SSW 5 7 29.85 1011 10 16.09344 0 0
6:52 am 06:52 Cloudy 36 2 27 -3 70 70 SSW 6 9 29.85 1011 10 16.09344 0 0
7:52 am 07:52 Cloudy 36 2 27 -3 70 70 S 7 11 29.85 1011 10 16.09344 0 0
8:52 am 08:52 Cloudy 36 2 28 -2 75 75 S 3 6 29.85 1011 10 16.09344 0 0
9:52 am 09:52 Cloudy with Light Snow 37 3 28 -2 70 70 SSW 3 6 29.85 1011 7 11.265408 0.001 0.001
10:24 am 10:24 Cloudy 37 3 28 -2 70 70 S 8 13 29.83 1010 10 16.09344 0 0
10:52 am 10:52 Cloudy with Light Snow 39 4 28 -2 65 65 NW 15 24 29.85 1011 6 9.656064 0.001 0.001
11:30 am 11:30 Cloudy 41 5 30 -1 66 66 NW 8 13 29.85 1011 9 14.484096 0 0
11:39 am 11:39 Cloudy 41 5 28 -2 61 61 NNW 18 30 29.85 1011 10 16.09344 0.001 0.001
11:52 am 11:52 Cloudy 41 5 28 -2 61 61 NW 17 28 29.85 1011 10 16.09344 0.001 0.001
12:27 pm 12:27 Cloudy with Light Snow 41 5 25 -4 53 53 NNW 16 26 29.85 1011 9 14.484096 0.001 0.001
12:52 pm 12:52 Cloudy 41 5 21 -6 45 45 NW 13 20 29.83 1010 10 16.09344 0.001 0.001
1:52 pm 13:52 Cloudy 41 5 16 -9 36 36 NW 15 24 29.83 1010 10 16.09344 0 0
2:52 pm 14:52 Mostly Cloudy 43 6 16 -9 34 34 NW 15 24 29.83 1010 10 16.09344 0 0
3:52 pm 15:52 Mostly Cloudy 43 6 14 -10 31 31 NW 14 22 29.85 1011 10 16.09344 0 0
4:52 pm 16:52 Mostly Cloudy 39 4 14 -10 36 36 NW 22 35 29.88 1012 10 16.09344 0 0
5:52 pm 17:52 Partly Cloudy 36 2 9 -13 32 32 WNW 18 30 29.94 1014 10 16.09344 0 0
6:52 pm 18:52 Mostly Clear 34 1 7 -14 32 32 NW 20 31 29.97 1015 10 16.09344 0 0
7:52 pm 19:52 Clear 30 -1 5 -15 34 34 NW 21 33 30.03 1017 10 16.09344 0 0
8:52 pm 20:52 Mostly Clear 27 -3 3 -16 36 36 NW 28 44 30.06 1018 10 16.09344 0 0
9:52 pm 21:52 Mostly Clear 25 -4 1 -17 36 36 NW 17 28 30.09 1019 10 16.09344 0 0
10:52 pm 22:52 Mostly Clear 23 -5 0 -18 36 36 NW 25 41 30.12 1020 10 16.09344 0 0
11:52 pm 23:52 Mostly Clear 21 -6 -2 -19 35 35 NW 20 31 30.15 1021 10 16.09344 0 0

Powered by AerisWeather